EW4713 Weather Reports


time (UTC)temp
C
wind
direction
speed
KPH
gust
KPH
rain 1hr
cm
rain 24hr
cm
rain mn
cm
humidity
%
barometer
mb
20260509215306 11 123 4.8 9.7 0.00 0.00 0.00 41 1012.5
20260509214302 10 180 3.2 16.1 0.00 0.00 0.00 41 1012.3
20260509213800 10 150 4.8 20.9 0.00 0.00 0.00 42 1012.6
20260509213302 10 155 8.0 20.9 0.00 0.00 0.00 40 1012.6
20260509212802 11 184 6.4 17.7 0.00 0.00 0.00 40 1012.5
20260509212306 11 169 6.4 16.1 0.00 0.00 0.00 40 1012.5
20260509211804 10 228 3.2 14.5 0.00 0.00 0.00 43 1012.5
20260509211307 10 174 12.9 16.1 0.00 0.00 0.00 42 1012.2
20260509210805 10 157 1.6 16.1 0.00 0.00 0.00 44 1012.5
20260509210306 10 171 8.0 16.1 0.00 0.00 0.00 42 1012.5
20260509205801 10 202 8.0 17.7 0.00 0.00 0.00 42 1012.5
20260509205306 10 159 11.3 17.7 0.00 0.00 0.00 41 1012.2
20260509204805 11 206 6.4 14.5 0.00 0.00 0.00 41 1012.2
20260509204303 10 195 4.8 16.1 0.00 0.00 0.00 42 1012.1
20260509203801 10 182 4.8 16.1 0.00 0.00 0.00 43 1012.1
20260509203302 10 137 4.8 12.9 0.00 0.00 0.00 43 1012.1
20260509202801 10 148 4.8 19.3 0.00 0.00 0.00 43 1012.1
20260509202306 10 206 8.0 19.3 0.00 0.00 0.00 41 1012.0
20260509201802 11 207 4.8 17.7 0.00 0.00 0.00 42 1012.2
20260509201303 11 90 0.0 16.1 0.00 0.00 0.00 43 1012.0
20260509200801 11 180 3.2 17.7 0.00 0.00 0.00 42 1011.7
20260509200304 11 165 6.4 17.7 0.00 0.00 0.00 41 1011.9
20260509195306 12 178 6.4 14.5 0.00 0.00 0.00 38 1011.8
20260509194801 12 108 8.0 14.5 0.00 0.00 0.00 38 1011.7
20260509194302 11 180 3.2 14.5 0.00 0.00 0.00 40 1011.7
20260509193304 11 140 8.0 16.1 0.00 0.00 0.00 41 1011.5
20260509192255 12 188 4.8 20.9 0.00 0.00 0.00 40 1011.4
20260509191755 11 106 3.2 20.9 0.00 0.00 0.00 42 1011.7
20260509191255 12 123 0.0 14.5 0.00 0.00 0.00 39 1011.6
20260509190752 12 154 6.4 12.9 0.00 0.00 0.00 40 1011.5
20260509190252 12 193 11.3 12.9 0.00 0.00 0.00 39 1011.4
20260509185751 12 165 4.8 11.3 0.00 0.00 0.00 40 1011.4
20260509185247 11 180 3.2 16.1 0.00 0.00 0.00 42 1011.4
20260509184743 10 245 3.2 16.1 0.00 0.00 0.00 44 1011.2
20260509183740 11 180 4.8 16.1 0.00 0.00 0.00 41 1011.3
20260509183242 10 129 4.8 14.5 0.00 0.00 0.00 43 1011.2
20260509182733 11 72 3.2 14.5 0.00 0.00 0.00 44 1011.2
20260509182231 10 157 4.8 16.1 0.00 0.00 0.00 43 1011.5
20260509181730 11 129 4.8 16.1 0.00 0.00 0.00 43 1011.2
20260509180730 10 182 4.8 14.5 0.00 0.00 0.00 44 1011.0
20260509180232 10 138 8.0 12.9 0.00 0.00 0.00 42 1011.0
20260509175728 10 144 6.4 12.9 0.00 0.00 0.00 42 1011.2
20260509175230 11 162 4.8 14.5 0.00 0.00 0.00 43 1011.2
20260509174732 10 168 4.8 16.1 0.00 0.00 0.00 42 1011.2
20260509174233 10 191 1.6 16.1 0.00 0.00 0.00 43 1010.7
20260509173732 10 171 8.0 16.1 0.00 0.00 0.00 44 1011.0
20260509173232 10 187 8.0 12.9 0.00 0.00 0.00 43 1010.7
20260509172732 10 240 3.2 12.9 0.00 0.00 0.00 44 1011.2
20260509172225 10 110 3.2 11.3 0.00 0.00 0.00 43 1010.9
20260509171716 10 126 4.8 16.1 0.00 0.00 0.00 43 1010.8
20260509170713 10 168 8.0 12.9 0.00 0.00 0.00 43 1010.8
20260509170215 10 180 4.8 20.9 0.00 0.00 0.00 43 1010.7
20260509165713 8 166 11.3 20.9 0.00 0.00 0.00 43 1010.8
20260509165215 10 164 4.8 11.3 0.00 0.00 0.00 42 1010.9
20260509164713 10 160 4.8 14.5 0.00 0.00 0.00 41 1010.7
20260509163713 9 208 8.0 14.5 0.00 0.00 0.00 44 1011.0
20260509163213 9 83 6.4 14.5 0.00 0.00 0.00 45 1010.8
20260509161713 9 30 3.2 11.3 0.00 0.00 0.00 45 1010.6
20260509160713 9 139 6.4 12.9 0.00 0.00 0.00 45 1010.7
20260509160213 9 180 3.2 14.5 0.00 0.00 0.00 46 1010.6
20260509155717 8 127 3.2 14.5 0.00 0.00 0.00 47 1010.3
20260509155213 8 157 9.7 14.5 0.00 0.00 0.00 45 1010.6
20260509154711 8 95 6.4 20.9 0.00 0.00 0.00 45 1010.2
20260509154211 8 135 6.4 20.9 0.00 0.00 0.00 48 1010.3
20260509153710 8 146 6.4 16.1 0.00 0.00 0.00 47 1010.3
20260509153210 8 180 6.4 16.1 0.00 0.00 0.00 47 1010.2
20260509152712 7 192 8.0 14.5 0.00 0.00 0.00 48 1010.3
20260509152212 7 148 0.0 12.9 0.00 0.00 0.00 48 1010.4
20260509151710 7 145 12.9 12.9 0.00 0.00 0.00 48 1010.2
20260509151212 8 203 4.8 12.9 0.00 0.00 0.00 48 1010.1
20260509150710 7 123 6.4 12.9 0.00 0.00 0.00 49 1010.3
20260509150212 7 106 3.2 14.5 0.00 0.00 0.00 48 1010.2
20260509145708 7 159 4.8 14.5 0.00 0.00 0.00 48 1010.1
20260509145209 7 168 4.8 14.5 0.00 0.00 0.00 48 1010.1
20260509144704 7 90 0.0 12.9 0.00 0.00 0.00 49 1010.0
20260509144204 7 210 3.2 12.9 0.00 0.00 0.00 48 1010.3
20260509143704 7 158 6.4 20.9 0.00 0.00 0.00 48 1010.0
20260509143205 6 127 3.2 20.9 0.00 0.00 0.00 49 1010.1
20260509142203 7 180 3.2 14.5 0.00 0.00 0.00 49 1010.0
20260509141703 7 127 4.8 12.9 0.00 0.00 0.00 49 1009.5
20260509141152 7 75 3.2 11.3 0.00 0.00 0.00 52 1009.9
20260509140644 7 154 0.0 16.1 0.00 0.00 0.00 52 1009.6
20260509140144 6 197 3.2 16.1 0.00 0.00 0.00 53 1009.6
20260509135641 6 176 3.2 16.1 0.00 0.00 0.00 54 1009.8
20260509135140 6 140 4.8 17.7 0.00 0.00 0.00 55 1009.6
20260509134631 6 185 4.8 17.7 0.00 0.00 0.00 55 1009.3
20260509134130 6 148 4.8 9.7 0.00 0.00 0.00 58 1009.3
20260509133629 6 155 4.8 11.3 0.00 0.00 0.00 58 1009.4
20260509133130 5 178 4.8 11.3 0.00 0.00 0.00 57 1009.3
20260509132629 5 108 8.0 11.3 0.00 0.00 0.00 57 1009.2
20260509132130 5 157 1.6 9.7 0.00 0.00 0.00 58 1009.2
20260509131130 5 166 4.8 11.3 0.00 0.00 0.00 60 1009.1
20260509125629 4 112 3.2 11.3 0.00 0.00 0.00 62 1008.5
20260509125130 4 123 1.6 8.0 0.00 0.00 0.00 62 1008.5
20260509124130 3 161 4.8 14.5 0.00 0.00 0.00 62 1008.5
20260509123630 3 150 3.2 12.9 0.00 0.00 0.00 63 1008.3
20260509123129 3 158 9.7 12.9 0.00 0.00 0.00 62 1008.3
20260509122629 3 127 8.0 11.3 0.00 0.00 0.00 62 1008.3
20260509122130 3 90 1.6 9.7 0.00 0.00 0.00 62 1007.8
20260509121628 3 96 3.2 9.7 0.00 0.00 0.00 62 1007.9
20260509121132 3 176 0.0 8.0 0.00 0.00 0.00 61 1007.9
20260509120630 3 124 3.2 6.4 0.00 0.00 0.00 62 1008.0
20260509120130 3 182 4.8 8.0 0.00 0.00 0.00 62 1007.9
20260509115630 3 150 3.2 9.7 0.00 0.00 0.00 61 1007.7
20260509114624 3 177 3.2 9.7 0.00 0.00 0.00 62 1007.5
20260509113621 3 90 0.0 9.7 0.00 0.00 0.00 62 1007.3
20260509113119 3 121 3.2 8.0 0.00 0.00 0.00 60 1007.2
20260509112121 3 161 3.2 9.7 0.00 0.00 0.00 60 1006.8
20260509111619 3 142 3.2 8.0 0.00 0.00 0.00 61 1006.7
20260509111115 3 184 0.0 8.0 0.00 0.00 0.00 59 1006.8
20260509110614 3 165 0.0 4.8 0.00 0.00 0.00 60 1006.7
20260509110115 3 106 0.0 4.8 0.00 0.00 0.00 59 1006.5
20260509105114 3 66 0.0 6.4 0.00 0.00 0.00 60 1006.3
20260509103610 3 180 1.6 6.4 0.00 0.00 0.00 59 1006.4
20260509103132 4 157 1.6 6.4 0.00 0.00 0.00 58 1006.5
20260509102608 4 132 3.2 6.4 0.00 0.00 0.00 57 1006.4
20260509102109 4 152 3.2 6.4 0.00 0.00 0.00 58 1006.4
20260509101609 5 185 3.2 6.4 0.00 0.00 0.00 57 1006.1
20260509101103 5 212 4.8 12.9 0.00 0.00 0.00 57 1006.3
20260509095601 5 206 1.6 6.4 0.00 0.00 0.00 59 1005.9
20260509095101 5 157 1.6 8.0 0.00 0.00 0.00 59 1006.0
20260509094603 5 188 3.2 8.0 0.00 0.00 0.00 59 1006.1
20260509094102 5 180 1.6 8.0 0.00 0.00 0.00 59 1005.8
20260509093602 5 106 0.0 9.7 0.00 0.00 0.00 59 1005.7
20260509092602 5 166 0.0 8.0 0.00 0.00 0.00 60 1005.6
20260509091600 6 101 3.2 9.7 0.00 0.00 0.00 61 1005.3
20260509091100 6 157 0.0 8.0 0.00 0.00 0.00 62 1005.4
20260509090602 6 181 6.4 8.0 0.00 0.00 0.00 66 1005.2
20260509090101 5 192 3.2 4.8 0.00 0.00 0.00 71 1005.0
20260509085601 6 148 3.2 6.4 0.00 0.00 0.00 74 1005.0
20260509085054 6 201 3.2 6.4 0.00 0.00 0.00 74 1005.0
20260509084552 5 117 3.2 8.0 0.00 0.00 0.00 76 1004.8
20260509084051 6 168 3.2 8.0 0.00 0.00 0.00 75 1004.7
20260509083550 6 180 0.0 6.4 0.00 0.00 0.00 76 1004.8
20260509083059 6 172 3.2 8.0 0.00 0.00 0.00 76 1004.6
20260509082550 6 117 1.6 8.0 0.00 0.00 0.00 77 1004.8
20260509082051 6 144 4.8 4.8 0.00 0.00 0.00 78 1004.3
20260509081548 5 140 0.0 4.8 0.00 0.00 0.00 79 1004.4
20260509081049 5 146 3.2 6.4 0.00 0.00 0.00 80 1004.5
20260509080549 5 157 1.6 6.4 0.00 0.00 0.00 79 1004.4
20260509080057 6 102 3.2 4.8 0.00 0.00 0.00 80 1004.5
20260509075048 6 97 0.0 6.4 0.00 0.00 0.00 79 1003.9
20260509074548 6 97 1.6 6.4 0.00 0.00 0.00 78 1004.0
20260509074045 6 90 1.6 6.4 0.00 0.00 0.00 79 1004.2
20260509073044 6 126 1.6 6.4 0.00 0.00 0.00 78 1004.2
20260509072537 6 112 4.8 6.4 0.00 0.00 0.00 77 1004.3
20260509072035 6 97 1.6 4.8 0.00 0.00 0.00 77 1004.1
20260509071535 6 117 0.0 8.0 0.00 0.00 0.00 76 1004.1
20260509071036 6 117 1.6 8.0 0.00 0.00 0.00 76 1004.4
20260509070538 6 74 0.0 4.8 0.00 0.00 0.00 77 1004.1
20260509065536 6 117 3.2 3.2 0.00 0.00 0.00 77 1004.2
20260509065037 6 66 0.0 3.2 0.00 0.00 0.00 75 1004.0
20260509064535 6 83 1.6 3.2 0.00 0.00 0.00 76 1004.3
20260509063537 6 90 0.0 4.8 0.00 0.00 0.00 75 1004.3
20260509063036 6 90 0.0 4.8 0.00 0.00 0.00 75 1004.1
20260509062535 6 90 1.6 3.2 0.00 0.00 0.00 75 1004.1
20260509062035 6 103 1.6 3.2 0.00 0.00 0.00 74 1004.2
20260509061534 6 82 1.6 3.2 0.00 0.00 0.00 73 1004.1
20260509061035 6 74 0.0 3.2 0.00 0.00 0.00 74 1004.3
20260509060529 6 151 0.0 3.2 0.00 0.00 0.00 73 1004.2
20260509060029 6 131 0.0 3.2 0.00 0.00 0.00 75 1004.3
20260509055530 6 83 0.0 3.2 0.00 0.00 0.00 76 1004.2
20260509055029 6 74 0.0 3.2 0.00 0.00 0.00 75 1004.3
20260509054029 6 90 3.2 6.4 0.00 0.00 0.00 74 1004.3
20260509053530 7 157 0.0 6.4 0.00 0.00 0.00 73 1004.2
20260509053029 7 124 3.2 6.4 0.00 0.00 0.00 71 1004.4
20260509052531 7 90 1.6 6.4 0.00 0.00 0.00 71 1004.6
20260509052029 7 150 3.2 6.4 0.00 0.00 0.00 72 1004.6
20260509051029 7 80 3.2 8.0 0.00 0.00 0.00 72 1004.4
20260509050529 7 97 3.2 11.3 0.00 0.00 0.00 72 1004.4
20260509050030 7 151 4.8 16.1 0.00 0.00 0.00 73 1004.4
20260509045521 7 105 3.2 16.1 0.00 0.00 0.00 72 1004.5
20260509044520 8 162 3.2 9.7 0.00 0.00 0.00 66 1004.7
20260509044017 8 135 3.2 9.7 0.00 0.00 0.00 64 1004.7
20260509043518 8 119 4.8 9.7 0.00 0.00 0.00 63 1004.8
20260509043017 8 133 3.2 8.0 0.00 0.00 0.00 60 1004.7
20260509042517 9 159 3.2 11.3 0.00 0.00 0.00 59 1004.9
20260509041518 10 76 8.0 12.9 0.00 0.00 0.00 55 1004.8
20260509040516 10 154 4.8 11.3 0.00 0.00 0.00 52 1004.5
20260509040015 10 130 3.2 12.9 0.00 0.00 0.00 53 1004.3
20260509035511 10 133 4.8 12.9 0.00 0.00 0.00 53 1004.6
20260509035011 10 117 0.0 8.0 0.00 0.00 0.00 53 1004.7
20260509034010 9 242 4.8 9.7 0.00 0.00 0.00 51 1004.3
20260509033511 10 84 0.0 6.4 0.00 0.00 0.00 52 1004.3
20260509033009 10 98 0.0 4.8 0.00 0.00 0.00 48 1004.1
20260509032009 10 172 0.0 3.2 0.00 0.00 0.00 45 1004.0
20260509031509 10 203 1.6 3.2 0.00 0.00 0.00 45 1003.4
20260509031011 9 180 1.6 1.6 0.00 0.00 0.00 47 1003.3
20260509030510 8 154 0.0 3.2 0.00 0.00 0.00 53 1003.4
20260509030010 8 154 0.0 3.2 0.00 0.00 0.00 52 1003.2
20260509025509 8 90 0.0 1.6 0.00 0.00 0.00 54 1003.2
20260509025009 8 81 0.0 0.0 0.00 0.00 0.00 53 1003.0
20260509024010 8 81 0.0 0.0 0.00 0.00 0.00 48 1002.9
20260509023012 8 81 0.0 0.0 0.00 0.00 0.00 49 1002.9
20260509022011 8 81 0.0 1.6 0.00 0.00 0.00 49 1002.9
20260509021012 8 99 0.0 1.6 0.00 0.00 0.00 49 1002.7
20260509020510 8 81 0.0 0.0 0.00 0.00 0.00 48 1002.5
20260509020003 8 172 0.0 0.0 0.00 0.00 0.00 46 1002.4
20260509015503 9 172 0.0 0.0 0.00 0.00 0.00 46 1002.5
20260509015001 9 172 0.0 0.0 0.00 0.00 0.00 46 1002.6
20260509014504 10 172 0.0 0.0 0.00 0.00 0.00 45 1002.8
20260509014001 10 172 0.0 0.0 0.00 0.00 0.00 44 1002.6
20260509013500 10 172 0.0 0.0 0.00 0.00 0.00 43 1002.6
20260509013001 11 172 0.0 0.0 0.00 0.00 0.00 42 1002.7
20260509012501 11 172 0.0 0.0 0.00 0.00 0.00 41 1002.7
20260509012003 11 172 0.0 1.6 0.00 0.00 0.00 40 1002.6
20260509011501 12 172 0.0 3.2 0.00 0.00 0.00 38 1002.8
20260509011001 12 165 1.6 3.2 0.00 0.00 0.00 38 1002.7
20260509010502 12 90 1.6 4.8 0.00 0.00 0.00 38 1002.8
20260509010001 12 165 0.0 11.3 0.00 0.00 0.00 37 1002.7
20260509005501 13 180 3.2 11.3 0.00 0.00 0.00 36 1002.8
20260509005003 13 138 4.8 11.3 0.00 0.00 0.00 35 1002.7
20260509004501 13 102 3.2 8.0 0.00 0.00 0.00 35 1002.8
20260509004003 14 102 3.2 8.0 0.00 0.00 0.00 34 1002.8
20260509003001 14 132 6.4 9.7 0.00 0.00 0.00 34 1002.9
20260509002525 15 165 0.0 9.7 0.00 0.00 0.00 34 1003.0
20260509002002 15 150 4.8 9.7 0.00 0.00 0.00 33 1002.9
20260509001501 15 180 1.6 11.3 0.00 0.00 0.00 33 1003.1
20260509001002 15 201 3.2 11.3 0.00 0.00 0.00 32 1002.9
20260509000500 15 96 4.8 14.5 0.00 0.00 0.00 32 1002.9
20260509000001 15 188 3.2 14.5 0.00 0.00 0.00 33 1003.0
20260508235504 15 139 3.2 11.3 0.00 0.00 0.00 32 1003.0
20260508234503 15 217 3.2 11.3 0.00 0.00 0.00 32 1003.1
20260508233004 16 154 3.2 14.5 0.00 0.00 0.00 33 1003.2
20260508232502 16 188 4.8 12.9 0.00 0.00 0.00 33 1003.3
20260508232005 16 164 4.8 9.7 0.00 0.00 0.00 33 1003.3
20260508231505 16 169 4.8 14.5 0.00 0.00 0.00 33 1003.4
20260508231004 16 128 3.2 14.5 0.00 0.00 0.00 33 1003.3
20260508230003 16 173 3.2 14.5 0.00 0.00 0.00 32 1003.4
20260508225503 16 168 3.2 11.3 0.00 0.00 0.00 33 1003.5
20260508225005 16 195 4.8 19.3 0.00 0.00 0.00 32 1003.5
20260508224507 16 159 0.0 19.3 0.00 0.00 0.00 33 1003.5
20260508223503 17 116 4.8 14.5 0.00 0.00 0.00 30 1003.4
20260508222504 16 127 0.0 14.5 0.00 0.00 0.00 29 1003.4
20260508221502 16 59 6.4 19.3 0.00 0.00 0.00 29 1003.2
20260508221001 16 141 12.9 20.9 0.00 0.00 0.00 29 1003.5
20260508220501 16 65 0.0 20.9 0.00 0.00 0.00 30 1003.2
20260508220001 17 133 4.8 17.7 0.00 0.00 0.00 31 1003.2
20260508215500 17 171 3.2 14.5 0.00 0.00 0.00 31 1002.9